STARLINK-32785, 62531

Orbit data source: Space-Track

STARLINK-32785, 62531 is a payload satellite owned by SpaceX/Seattle (US) in LEO that was launched on Wed, 08 Jan 2025 UTC via an FALCON 9 launch vehicle from the Air Force Eastern Test Range (AFETR). Payload-class satellites include a variety of spacecraft equipped with specific instruments for various scientific and technological missions. These include communications satellites like Starlink; space stations such as the ISS; scientific satellites like the Hubble; Earth observation satellites from companies like Planet Labs, Umbra, and HawkEye 360; GPS; miniature CubeSats for education and research; and military/defense satellites.

Loading next visibility...
Identifier
62531, 2025-004W
Orbit
LEO
Country
Flag of USUS
Related business
Manufacturer
SpaceX/Seattle
Mission
Operational Commercial Communications
Bus & Motor
STARLINK V2M, Unknown motor
Mass
730 kg wet, ~700 kg dry
Launch date (UTC)
2025-01-08 (1 year ago)
Launch vehicle
FALCON 9
Launch site
Air Force Eastern Test Range (AFETR)
Object type
Payload
Rocket body
Debris
Shape & HBR
Box + 2 Pan, 17.7 m
Radar Cross Section
33.884 m², Large (>1 m²)

Expand to show TLE details & history
Last TLE update: 20 hours ago

TLE from 20 hours ago
0 STARLINK-32785
1 62531U 25004W   26035.52233967  .00028154  00000-0  10281-2 0  9995
2 62531  42.9997  47.3981 0001248 277.6973  82.3737 15.27599182 61384
Epoch: 2026-02-04T12:32Z
TLE epoch observation values (Epoch: 2026-02-04T12:32:10.147Z)
Latitude
-0.00001°
Longitude
84.6681°
Altitude
482.654 km
Speed
7.626 km/s
True Right ascension
03h 09m 35s
True Declination
0° 00' 00"
Sunlit
Object was in daylight at epoch
Visualization orbit readout
Latitude
Unknown
Longitude
Unknown
Altitude
Unknown
Speed
Unknown
Apparent Right ascension
Unknown
Apparent Declination
Unknown
Sunlit
N/A
Visualization observer readout
Local Sidereal Time
10:50:12
Azimuth
Unknown
Elevation
Unknown
Doppler factor
Unknown
Orbital elements
Apogee altitude
485.793 km
Perigee altitude
484.08 km
Semi-major axis
6,863.074 km
Eccentricity
0.00012
Inclination
42.9997°
RAAN
47.3981°
Arg. of periapsis
277.6973°
True anomaly
82.38787°
Mean anomaly
82.3737°
Eccentric anomaly
82.38079°
Mean motion
3.81738 °/min
Orbital period
94.31 mins
BSTAR
0.0010281
Loading maneuver chart data...
Computing Atmospheric mass density...
Loading historical data...
Loading historical data...
Loading historical data...
Loading historical data...
Loading historical data...
Loading historical data...
Loading historical data...

Documentation

Showing up to 5 results
|